ICEYE-X30 (56947 NORAD) Tracking and Keplerian Element Data

This shows tracking and keplerian element data for the satellite.

Feedback or suggestion? Click here.




ElementValue
Catalog56947
NameICEYE-X30
Epoch Orbit9150
Epoch Day34.79882671
Epoch Year2025
RAAN162.348
Inclination97.5475
Eccentricity0.000857
Argument of Perigee336.9295
Mean Anonmoly23.1561
Mean Motion15.33066993
Decay Rate0.00029391
L11 56947U 23084R 25034.79882671 .00029391 00000+0 91911-3 0 9997
L22 56947 97.5475 162.3480 0008570 336.9295 23.1561 15.33066993 91509



Live tracking and technical data element details for ICEYE-X30 (NORAD 56947). ICEYE-X30 can be tracked NOW for your location showing map with azimuth and elevation plus other details from your city location.







IsCatalogInMostPopularTable: catalog: 56947, numindb: 42
Update: records affected: 1



GetName: 56947 ICEYE-X30

Hit Count: updated at: Wed, 18 Jun 2025 06:05:38 GMT